Parks, AZ (86018)

4:04 AM MST on April 25, 2017 (GMT -0700)
Garland Prairie | | Change Station
Active Advisory: Wind Advisory Active Notice: Public Information Statement

Elev 6785 ft 35.16 °N, 111.96 °W | Updated 6 seconds ago

Mostly Cloudy
Mostly Cloudy
49.1 °F
Feels Like 46 °F
N
7.2
Wind Variable Wind from SW
Gusts 9.8 mph

Today
High -- | Low -- °F
--% Chance of Precip.
Yesterday
High -- | Low -- °F
Precip. -- in
Pressure 29.52 in
Visibility 10.0 miles
Clouds Few 6000 ft
Overcast 7500 ft
Windchill 46 °F
Dew Point 34 °F
Humidity 55%
Rainfall 0.00 in
Snow Depth Not available.
5:42 AM 7:08 PM
Waning Crescent, 2% visible
METAR KFLG 251057Z AUTO 24008KT 10SM FEW060 OVC075 08/M02 A2977 RMK AO2 SLP996 T00831017
Pressure 29.52 in
Visibility 10.0 miles
Clouds Few 6000 ft
Overcast 7500 ft
Windchill 46 °F
Dew Point 34 °F
Humidity 55%
Rainfall 0.00 in
Snow Depth Not available.
5:42 AM 7:08 PM
Waning Crescent, 2% visible
METAR KFLG 251057Z AUTO 24008KT 10SM FEW060 OVC075 08/M02 A2977 RMK AO2 SLP996 T00831017

Get Your Daily Forecast Email!

Thanks for signing up!

Be on the lookout for a verification email in your inbox.

You'll start receiving severe weather alerts in your inbox..

×

10-Day Weather Forecast

Almanac

Astronomy

Apr. 25, 2017 Rise Set
Actual Time
Civil Twilight
Nautical Twilight
Astronomical Twilight
Moon
Length of Visible Light
Length of Day
Tomorrow will be .
, % of the Moon is Illuminated

Today's Extremes

State Highs State Lows

Community

WunderPhotos

WunderBlog® & News

Nearby

Air Quality

  Air Quality AQ Index Pollutant
Not available.

Snow Depth

Station Depth Elevation

Earthquake Activity

City Distance Mag. Time & Date
Minimum magnitude displayed is 2.5.

Coastal Water Temperatures

Place Temperature

Stations

Nearby Weather Stations

Station Location Temp. Windchill Dew Point Humidity Wind Precip. Elev Updated Type
                   

Watches & Warnings

Wind Advisory
Issued: 2:27 AM MDT Apr. 25, 2017 – National Weather Service

... Wind Advisory remains in effect from noon today to 8 PM MST
this evening...

* timing... gusty west to northwest winds will increase late
morning and early afternoon. The winds will continue into
the evening.

* Winds... west to northwest winds 20 to 30 mph with gusts to
between 40 and 45 mph.

* Impacts... winds this strong can make driving difficult...
especially for high profile vehicles. Consider securing loose
belongings on your property.

Precautionary/preparedness actions...

A Wind Advisory means that sustained winds of 30 to 39 mph... or
gusts from 40 to 57 mph... are expected. Additional
weather information is on the web at www.Weather.Gov/Flagstaff.